Wahoo, NE

1:46 AM CST on February 23, 2017 (GMT -0600)
Wahoo Municipal

Weather History for KAHQ - June, 2013

Change the Weather History Date:

Sunday, June 9, 2013

  Actual Average Record
Temperature  
Mean Temperature 65 °F -  
Max Temperature 70 °F 82 °F 102 °F (1985)
Min Temperature 60 °F 58 °F 45 °F (1980)
Growing Degree Days 15 (Base 50)    
Moisture  
Dew Point 57 °F    
Average Humidity 77    
Maximum Humidity 85    
Minimum Humidity 66    
Precipitation  
Precipitation 0.01 in - - ()
Sea Level Pressure  
Sea Level Pressure 29.78 in    
Wind  
Wind Speed 13 mph (WNW)    
Max Wind Speed 23 mph    
Max Gust Speed 30 mph    
Visibility 10 miles    
Events Rain    
Averages and records for this station are not official NWS values.
T = Trace of Precipitation, MM = Missing Value Source: NWS Daily Summary

Daily Weather History Graph

Daily Weather History Graph

Search for Another Location

Airport or City:

Trip Planner

Search our weather history database for the weather conditions in past years. The results will help you decide how hot, cold, wet, or windy it might be!

Date:

Astronomy

Jun. 09, 2013 Rise Set
Actual Time 5:53 AM CDT 8:58 PM CDT
Civil Twilight 5:19 AM CDT 9:32 PM CDT
Nautical Twilight 4:36 AM CDT 10:14 PM CDT
Astronomical Twilight 3:46 AM CDT 11:05 PM CDT
Moon 6:51 AM CDT (6/9) 9:45 PM CDT (6/9)
Length of Visible Light 16h 12m
Length of Day
15h 05m
New Moon, 1% of the Moon is Illuminated
Jun 9
New Moon
Jun 16
First Quarter
Jun 23
Full
Jun 29
Last Quarter
Jul 8
New

Hourly Weather History & Observations

Time (CDT) Temp. Dew Point Humidity Pressure Visibility Wind Dir Wind Speed Gust Speed Precip Events Conditions
12:15 AM 64.8 °F 59.2 °F 82% 29.74 in 10.0 mi SW 10.4 mph - N/A   Overcast
12:35 AM 64.9 °F 59.2 °F 82% 29.74 in 10.0 mi SW 8.1 mph - N/A   Overcast
12:55 AM 65.5 °F 58.6 °F 79% 29.74 in 10.0 mi WSW 13.8 mph - N/A   Overcast
1:15 AM 64.9 °F 58.5 °F 79% 29.73 in 10.0 mi WSW 11.5 mph 17.3 mph N/A   Mostly Cloudy
1:35 AM 64.2 °F 58.5 °F 82% 29.73 in 10.0 mi SW 9.2 mph - N/A   Mostly Cloudy
1:55 AM 63.9 °F 57.6 °F 80% 29.73 in 10.0 mi WSW 10.4 mph 16.1 mph N/A   Scattered Clouds
2:15 AM 63.5 °F 56.3 °F 77% 29.73 in 10.0 mi WSW 12.7 mph - N/A   Scattered Clouds
2:35 AM 62.4 °F 55.8 °F 79% 29.72 in 10.0 mi West 11.5 mph - N/A   Mostly Cloudy
2:55 AM 61.9 °F 55.6 °F 80% 29.72 in 10.0 mi WSW 11.5 mph - N/A   Clear
3:15 AM 61.5 °F 56.1 °F 82% 29.72 in 10.0 mi WSW 11.5 mph 17.3 mph N/A   Scattered Clouds
3:35 AM 61.7 °F 56.3 °F 82% 29.71 in 10.0 mi WSW 11.5 mph - N/A   Overcast
3:55 AM 61.7 °F 55.8 °F 81% 29.71 in 10.0 mi WSW 13.8 mph - N/A   Scattered Clouds
4:15 AM 61.3 °F 55.6 °F 81% 29.71 in 10.0 mi West 12.7 mph - N/A   Scattered Clouds
4:35 AM 61.3 °F 55.8 °F 82% 29.71 in 10.0 mi WSW 11.5 mph 16.1 mph N/A   Mostly Cloudy
4:55 AM 61.3 °F 55.8 °F 82% 29.72 in 10.0 mi West 12.7 mph 18.4 mph N/A   Scattered Clouds
5:15 AM 61.5 °F 55.9 °F 82% 29.73 in 10.0 mi West 11.5 mph - N/A   Mostly Cloudy
5:35 AM 61.7 °F 55.9 °F 81% 29.72 in 10.0 mi West 15.0 mph - N/A   Overcast
5:55 AM 61.7 °F 55.9 °F 81% 29.73 in 10.0 mi West 13.8 mph - N/A   Overcast
6:15 AM 61.9 °F 56.3 °F 82% 29.73 in 10.0 mi West 13.8 mph 18.4 mph N/A Rain Light Rain
6:35 AM 61.7 °F 56.3 °F 82% 29.74 in 10.0 mi WSW 11.5 mph - N/A   Overcast
6:55 AM 61.7 °F 56.3 °F 82% 29.74 in 10.0 mi West 10.4 mph - N/A   Overcast
7:15 AM 62.1 °F 56.5 °F 82% 29.74 in 10.0 mi West 9.2 mph - N/A   Overcast
7:35 AM 62.8 °F 56.7 °F 80% 29.73 in 10.0 mi West 12.7 mph - N/A   Overcast
7:55 AM 63.0 °F 56.3 °F 79% 29.73 in 10.0 mi West 12.7 mph 18.4 mph N/A   Overcast
8:15 AM 63.0 °F 56.5 °F 79% 29.74 in 10.0 mi West 11.5 mph - N/A   Overcast
8:35 AM 63.0 °F 56.7 °F 80% 29.74 in 10.0 mi West 11.5 mph 17.3 mph N/A Rain Light Rain
8:55 AM 62.6 °F 57.2 °F 82% 29.75 in 7.0 mi WNW 15.0 mph 19.6 mph N/A Rain Light Rain
9:15 AM 62.1 °F 57.6 °F 85% 29.76 in 10.0 mi West 10.4 mph 18.4 mph 0.01 in Rain Light Rain
9:35 AM 62.6 °F 57.4 °F 83% 29.76 in 10.0 mi West 13.8 mph 18.4 mph 0.01 in Rain Light Rain
9:55 AM 63.0 °F 56.8 °F 80% 29.77 in 10.0 mi WNW 17.3 mph 21.9 mph 0.01 in   Overcast
10:15 AM 63.3 °F 56.7 °F 79% 29.77 in 10.0 mi WNW 18.4 mph 24.2 mph N/A   Overcast
10:35 AM 63.5 °F 57.2 °F 80% 29.77 in 10.0 mi West 19.6 mph 28.8 mph N/A   Overcast
10:55 AM 62.8 °F 57.4 °F 82% 29.77 in 10.0 mi WNW 17.3 mph 25.3 mph N/A   Overcast
11:15 AM 63.3 °F 57.2 °F 80% 29.78 in 10.0 mi West 13.8 mph - N/A   Overcast
11:35 AM 63.7 °F 57.0 °F 79% 29.78 in 10.0 mi WNW 18.4 mph 23.0 mph N/A   Overcast
11:55 AM 64.0 °F 57.2 °F 78% 29.78 in 10.0 mi WNW 18.4 mph 27.6 mph N/A   Overcast
12:15 PM 64.4 °F 57.2 °F 77% 29.79 in 10.0 mi WNW 15.0 mph 23.0 mph N/A   Overcast
12:35 PM 64.8 °F 56.8 °F 75% 29.78 in 10.0 mi WNW 17.3 mph - N/A   Overcast
12:55 PM 65.3 °F 57.4 °F 76% 29.79 in 10.0 mi WNW 17.3 mph 21.9 mph N/A   Overcast
1:15 PM 65.3 °F 57.2 °F 75% 29.80 in 10.0 mi WNW 17.3 mph 28.8 mph N/A   Overcast
1:35 PM 65.5 °F 57.2 °F 75% 29.80 in 10.0 mi WNW 17.3 mph 26.5 mph N/A   Overcast
1:55 PM 66.7 °F 58.1 °F 74% 29.79 in 10.0 mi WNW 19.6 mph 27.6 mph N/A   Overcast
2:15 PM 67.3 °F 57.6 °F 71% 29.80 in 10.0 mi WNW 23.0 mph 29.9 mph N/A   Overcast
2:35 PM 67.1 °F 57.9 °F 72% 29.80 in 10.0 mi WNW 18.4 mph 28.8 mph N/A   Overcast
2:55 PM 69.1 °F 58.3 °F 68% 29.79 in 10.0 mi NW 21.9 mph 27.6 mph N/A   Overcast
3:15 PM 67.5 °F 57.7 °F 71% 29.79 in 10.0 mi WNW 20.7 mph 28.8 mph N/A   Overcast
3:35 PM 68.9 °F 58.5 °F 69% 29.80 in 10.0 mi NW 20.7 mph 28.8 mph N/A   Overcast
3:55 PM 69.4 °F 58.3 °F 68% 29.79 in 10.0 mi NW 23.0 mph 27.6 mph N/A   Overcast
4:15 PM 69.3 °F 58.1 °F 68% 29.79 in 10.0 mi NW 18.4 mph 27.6 mph N/A   Overcast
4:35 PM 68.9 °F 57.9 °F 68% 29.80 in 10.0 mi NW 19.6 mph 27.6 mph N/A   Overcast
4:55 PM 69.6 °F 57.9 °F 66% 29.80 in 10.0 mi NW 19.6 mph 24.2 mph N/A   Overcast
5:15 PM 69.1 °F 58.5 °F 69% 29.80 in 10.0 mi NW 18.4 mph 24.2 mph N/A   Overcast
5:35 PM 69.3 °F 58.1 °F 68% 29.80 in 10.0 mi NW 16.1 mph 21.9 mph N/A   Overcast
5:55 PM 69.4 °F 58.8 °F 69% 29.80 in 10.0 mi NW 18.4 mph 27.6 mph N/A   Overcast
6:15 PM 69.3 °F 58.3 °F 68% 29.81 in 10.0 mi NW 16.1 mph 24.2 mph N/A   Overcast
6:35 PM 69.8 °F 58.5 °F 67% 29.80 in 10.0 mi NW 21.9 mph 25.3 mph N/A   Mostly Cloudy
6:55 PM 69.1 °F 58.1 °F 68% 29.80 in 10.0 mi NW 18.4 mph 27.6 mph N/A   Scattered Clouds
7:15 PM 69.6 °F 58.1 °F 67% 29.81 in 10.0 mi NW 17.3 mph 24.2 mph N/A   Overcast
7:35 PM 69.3 °F 57.9 °F 67% 29.81 in 10.0 mi NW 17.3 mph 24.2 mph N/A   Overcast
7:55 PM 68.7 °F 57.4 °F 67% 29.82 in 10.0 mi NNW 12.7 mph 20.7 mph N/A   Overcast
8:15 PM 68.2 °F 57.2 °F 68% 29.82 in 10.0 mi NW 12.7 mph - N/A   Mostly Cloudy
8:35 PM 67.3 °F 57.4 °F 70% 29.82 in 10.0 mi NW 9.2 mph - N/A   Mostly Cloudy
8:55 PM 66.7 °F 56.8 °F 70% 29.82 in 10.0 mi NW 9.2 mph - N/A   Scattered Clouds
9:15 PM 65.8 °F 56.7 °F 72% 29.83 in 10.0 mi WNW 9.2 mph - N/A   Scattered Clouds
9:35 PM 64.8 °F 56.1 °F 74% 29.83 in 10.0 mi NW 6.9 mph - N/A   Clear
9:55 PM 63.7 °F 55.9 °F 76% 29.84 in 10.0 mi NW 6.9 mph - N/A   Clear
10:15 PM 62.8 °F 55.9 °F 78% 29.85 in 10.0 mi NW 6.9 mph - N/A   Clear
10:35 PM 62.1 °F 55.8 °F 80% 29.85 in 10.0 mi NNW 4.6 mph - N/A   Clear
10:55 PM 61.0 °F 55.4 °F 82% 29.85 in 10.0 mi NW 5.8 mph - N/A   Clear
11:15 PM 61.0 °F 55.9 °F 83% 29.85 in 10.0 mi NW 9.2 mph - N/A   Clear
11:35 PM 61.2 °F 55.6 °F 82% 29.85 in 10.0 mi NW 6.9 mph - N/A   Clear
11:55 PM 60.6 °F 55.4 °F 83% 29.85 in 10.0 mi NW 6.9 mph - N/A   Clear